Location: Cuiabá
(15.6014°S, 56.0979°W)
Time: 21:56:37
(UTC-04:00)

Hubble Space Telescope - Pass Details

Date: 04 December 2022
Orbit: 529 x 532 km, 28.5° (Epoch: 26 January)

Event Time Altitude Azimuth Distance (km) Brightness Sun altitude
Rises 18:29:29 0° 264° (W) 2,670 5.9 -6.2°
Reaches altitude 10° 18:32:05 10° 250° (WSW) 1,783 5.2 -6.8°
Maximum altitude 18:35:25 23° 196° (SSW) 1,162 3.0 -7.5°
Drops below altitude 10° 18:38:45 10° 142° (SE) 1,788 3.3 -8.2°
Sets 18:41:23 0° 127° (SE) 2,681 4.1 -8.8°
